Weather History for Kansas City, MO

Change the Weather History Date:

Friday, November 23, 2012

  Actual Average Record
Temperature  
Mean Temperature 38 °F -  
Max Temperature 46 °F 50 °F 69 °F (2006)
Min Temperature 28 °F 33 °F 15 °F (2013)
Degree Days  
Heating Degree Days 27    
Moisture  
Dew Point 16 °F    
Average Humidity 45    
Maximum Humidity 63    
Minimum Humidity 32    
Precipitation  
Precipitation 0.00 in - - ()
Sea Level Pressure  
Sea Level Pressure 30.42 in    
Wind  
Wind Speed 10 mph (NW)    
Max Wind Speed 22 mph    
Max Gust Speed 34 mph    
Visibility 10 miles    
Events Snow    
Averages and records for this station are not official NWS values.
T = Trace of Precipitation, MM = Missing Value Source: NWS Daily Summary

Daily Weather History Graph

Daily Weather History Graph

Search for Another Location

Airport:

Trip Planner

Search our weather history database for the weather conditions in past years. The results will help you decide how hot, cold, wet, or windy it might be!

Date:

Astronomy

Nov. 23, 2012 Rise Set
Actual Time 7:10 AM CST 4:58 PM CST
Civil Twilight 6:41 AM CST 5:27 PM CST
Nautical Twilight 6:08 AM CST 6:00 PM CST
Astronomical Twilight 5:36 AM CST 6:32 PM CST
Moon 2:12 PM CST (11/23) 2:32 AM CST (11/23)
Length of Visible Light 10h 46m
Length of Day
9h 47m
Waxing Gibbous, 80% of the Moon is Illuminated
Nov 23
Waxing Gibbous
Nov 28
Full
Dec 6
Last Quarter
Dec 13
New
Dec 19
First Quarter

Hourly Weather History & Observations

Time (CST) Temp. Windchill Dew Point Humidity Pressure Visibility Wind Dir Wind Speed Gust Speed Precip Events Conditions
12:54 AM 46.0 °F 42.5 °F 34.0 °F 63% 30.27 in 10.0 mi NW 6.9 mph - N/A   Clear
1:54 AM 45.0 °F - 32.0 °F 60% 30.27 in 10.0 mi Calm Calm - N/A   Clear
2:54 AM 44.1 °F 39.5 °F 30.9 °F 60% 30.27 in 10.0 mi West 8.1 mph - N/A   Clear
3:54 AM 44.1 °F 38.1 °F 28.0 °F 53% 30.28 in 10.0 mi WNW 11.5 mph 20.7 mph N/A   Clear
4:54 AM 39.9 °F 31.4 °F 19.0 °F 43% 30.32 in 10.0 mi WNW 16.1 mph 34.5 mph N/A   Clear
5:54 AM 35.1 °F 24.1 °F 18.0 °F 50% 30.36 in 9.0 mi NW 19.6 mph 26.5 mph 0.00 in   Scattered Clouds
6:54 AM 32.0 °F 19.5 °F 14.0 °F 48% 30.41 in 9.0 mi NW 21.9 mph 29.9 mph 0.00 in Snow Light Snow
7:54 AM 30.9 °F 19.8 °F 15.1 °F 52% 30.44 in 10.0 mi NW 16.1 mph 25.3 mph 0.00 in   Clear
8:54 AM 32.0 °F 20.8 °F 15.1 °F 50% 30.46 in 9.0 mi NW 17.3 mph 27.6 mph 0.00 in Snow Light Snow
8:59 AM 32.0 °F 20.8 °F 15.8 °F 51% 30.45 in 9.0 mi NW 17.3 mph 27.6 mph 0.00 in   Clear
9:54 AM 34.0 °F 23.8 °F 16.0 °F 48% 30.49 in 10.0 mi NW 16.1 mph 26.5 mph 0.00 in   Clear
10:54 AM 36.0 °F 27.1 °F 15.1 °F 43% 30.50 in 10.0 mi NW 13.8 mph 23.0 mph N/A   Clear
11:54 AM 37.0 °F 27.7 °F 15.1 °F 41% 30.48 in 10.0 mi NW 16.1 mph 21.9 mph N/A   Clear
12:54 PM 39.0 °F 30.6 °F 14.0 °F 36% 30.45 in 10.0 mi NW 15.0 mph 19.6 mph N/A   Clear
1:54 PM 39.0 °F 31.0 °F 14.0 °F 36% 30.45 in 10.0 mi WNW 13.8 mph 20.7 mph N/A   Clear
2:54 PM 39.9 °F 32.5 °F 12.0 °F 32% 30.45 in 10.0 mi NNW 12.7 mph - N/A   Clear
3:54 PM 39.0 °F 33.4 °F 10.9 °F 32% 30.45 in 10.0 mi NW 8.1 mph 17.3 mph N/A   Clear
4:54 PM 37.0 °F 29.8 °F 10.0 °F 33% 30.45 in 10.0 mi NW 10.4 mph - N/A   Clear
5:54 PM 36.0 °F 30.3 °F 10.0 °F 34% 30.46 in 10.0 mi NNW 6.9 mph - N/A   Clear
6:54 PM 33.1 °F 30.0 °F 10.9 °F 40% 30.47 in 10.0 mi WNW 3.5 mph - N/A   Clear
7:54 PM 32.0 °F 27.5 °F 10.9 °F 42% 30.47 in 10.0 mi WNW 4.6 mph - N/A   Clear
8:54 PM 32.0 °F - 10.9 °F 42% 30.46 in 10.0 mi Calm Calm - N/A   Clear
9:54 PM 30.9 °F - 10.9 °F 43% 30.46 in 10.0 mi Calm Calm - N/A   Clear
10:54 PM 30.0 °F - 10.9 °F 45% 30.46 in 10.0 mi Calm Calm - N/A   Clear
11:54 PM 28.9 °F - 10.9 °F 47% 30.45 in 10.0 mi Calm Calm - N/A   Clear